OMKFY LZIB-LZKZ

Flight info

Callsign OMKFY
Flight time 0h 31m
Altitude 25000
Route NIT N190 TAKOS
Aircraft C750/M-SBDE3FGHRWXY/S

Departure

Time 2026-04-29 17:49
Airport M. R. Štefánik Airport (LZIB)

Arrival

Time 2026-04-29 18:20
Airport Košice International Airport (LZKZ)
Time Latitude Longitude Altitude Speed Heading
2026-04-29 17:25 48.16466 17.19528 430 ft 0 kts 82°
2026-04-29 17:45 48.16469 17.19543 424 ft 4 kts 63°
2026-04-29 17:45 48.16485 17.19600 430 ft 8 kts 86°
2026-04-29 17:45 48.16458 17.19674 428 ft 10 kts 123°
2026-04-29 17:45 48.16411 17.19781 431 ft 14 kts 123°
2026-04-29 17:46 48.16352 17.19892 431 ft 12 kts 154°
2026-04-29 17:46 48.16294 17.19845 431 ft 9 kts 222°
2026-04-29 17:46 48.16243 17.19791 431 ft 8 kts 200°
2026-04-29 17:46 48.16193 17.19795 422 ft 7 kts 153°
2026-04-29 17:47 48.16163 17.19831 431 ft 2 kts 134°
2026-04-29 17:47 48.16152 17.19847 429 ft 2 kts 134°
2026-04-29 17:47 48.16125 17.19889 427 ft 9 kts 134°
2026-04-29 17:47 48.16096 17.19966 431 ft 8 kts 82°
2026-04-29 17:48 48.16131 17.20021 431 ft 7 kts 45°
2026-04-29 17:48 48.16228 17.20160 429 ft 59 kts 45°
2026-04-29 17:48 48.16809 17.20980 449 ft 150 kts 39°
2026-04-29 17:48 48.17628 17.22179 773 ft 184 kts 40°
2026-04-29 17:49 48.18615 17.23623 1312 ft 204 kts 40°
2026-04-29 17:49 48.19598 17.25010 2491 ft 192 kts 41°
2026-04-29 17:49 48.20617 17.26468 3109 ft 214 kts 42°
2026-04-29 17:49 48.21727 17.28099 3588 ft 239 kts 45°
2026-04-29 17:50 48.22477 17.30374 4640 ft 245 kts 72°
2026-04-29 17:50 48.22827 17.32894 5762 ft 251 kts 75°
2026-04-29 17:50 48.23188 17.35501 6782 ft 259 kts 75°
2026-04-29 17:50 48.23553 17.38202 7751 ft 269 kts 76°
2026-04-29 17:51 48.23924 17.41008 8839 ft 278 kts 75°
2026-04-29 17:51 48.24311 17.43903 9893 ft 287 kts 75°
2026-04-29 17:51 48.24702 17.46836 10775 ft 294 kts 75°
2026-04-29 17:51 48.25093 17.49810 11553 ft 289 kts 75°
2026-04-29 17:52 48.25494 17.52828 12147 ft 300 kts 75°
2026-04-29 17:52 48.25775 17.54934 12218 ft 305 kts 75°
2026-04-29 17:52 48.26319 17.59079 12214 ft 306 kts 75°
2026-04-29 17:52 48.26734 17.62235 12361 ft 314 kts 75°
2026-04-29 17:53 48.27151 17.65415 13571 ft 307 kts 75°
2026-04-29 17:53 48.27569 17.68600 14400 ft 315 kts 74°
2026-04-29 17:53 48.27997 17.71859 15209 ft 320 kts 74°
2026-04-29 17:53 48.28427 17.75166 16022 ft 326 kts 74°
2026-04-29 17:54 48.28865 17.78530 16872 ft 331 kts 74°
2026-04-29 17:54 48.29309 17.81956 17725 ft 336 kts 74°
2026-04-29 17:54 48.29759 17.85430 18587 ft 342 kts 74°
2026-04-29 17:54 48.30212 17.88936 19321 ft 349 kts 74°
2026-04-29 17:55 48.30678 17.92553 20068 ft 356 kts 74°
2026-04-29 17:55 48.31151 17.96237 20836 ft 362 kts 74°
2026-04-29 17:55 48.31633 17.99994 21574 ft 369 kts 74°
2026-04-29 17:55 48.32121 18.03814 22346 ft 376 kts 74°
2026-04-29 17:56 48.32617 18.07708 23097 ft 382 kts 74°
2026-04-29 17:56 48.33113 18.11616 23819 ft 389 kts 74°
2026-04-29 17:56 48.33622 18.15641 24447 ft 394 kts 74°
2026-04-29 17:56 48.34135 18.19705 25086 ft 399 kts 74°
2026-04-29 17:57 48.34668 18.23908 25224 ft 421 kts 74°
2026-04-29 17:57 48.35230 18.28345 25234 ft 443 kts 75°
2026-04-29 17:57 48.35811 18.33013 25235 ft 464 kts 75°
2026-04-29 17:57 48.36207 18.36220 25255 ft 477 kts 75°
2026-04-29 17:58 48.37044 18.42959 25227 ft 500 kts 75°
2026-04-29 17:58 48.37686 18.48128 25228 ft 515 kts 75°
2026-04-29 17:58 48.38346 18.53495 25228 ft 526 kts 76°
2026-04-29 17:58 48.39009 18.58938 25221 ft 532 kts 76°
2026-04-29 17:59 48.39679 18.64428 25220 ft 534 kts 76°
2026-04-29 17:59 48.40351 18.69930 25214 ft 535 kts 76°
2026-04-29 17:59 48.41300 18.75326 25170 ft 527 kts 64°
2026-04-29 17:59 48.42952 18.80205 25210 ft 518 kts 54°
2026-04-29 18:00 48.44905 18.84747 25216 ft 516 kts 50°
2026-04-29 18:00 48.46987 18.89149 25229 ft 515 kts 48°
2026-04-29 18:00 48.49059 18.93587 25209 ft 521 kts 52°
2026-04-29 18:00 48.50718 18.98395 25195 ft 527 kts 60°
2026-04-29 18:01 48.51960 19.03632 25182 ft 533 kts 69°
2026-04-29 18:01 48.52713 19.09132 25185 ft 539 kts 78°
2026-04-29 18:01 48.53052 19.14774 25198 ft 542 kts 82°
2026-04-29 18:01 48.53355 19.20439 25191 ft 541 kts 82°
2026-04-29 18:02 48.53650 19.26093 25190 ft 541 kts 82°
2026-04-29 18:02 48.53860 19.31771 25165 ft 540 kts 86°
2026-04-29 18:02 48.53798 19.37233 24804 ft 502 kts 88°
2026-04-29 18:02 48.53735 19.42329 24417 ft 470 kts 87°
2026-04-29 18:03 48.53670 19.47121 23990 ft 443 kts 87°
2026-04-29 18:03 48.53599 19.51648 23586 ft 420 kts 87°
2026-04-29 18:03 48.53532 19.55944 23238 ft 399 kts 87°
2026-04-29 18:03 48.53476 19.60219 22936 ft 420 kts 87°
2026-04-29 18:04 48.53416 19.64594 22670 ft 423 kts 87°
2026-04-29 18:04 48.53335 19.69063 22414 ft 426 kts 88°
2026-04-29 18:04 48.53253 19.73529 22140 ft 426 kts 88°
2026-04-29 18:04 48.53179 19.77986 21882 ft 423 kts 87°
2026-04-29 18:05 48.53108 19.82410 21610 ft 419 kts 87°
2026-04-29 18:05 48.53030 19.86853 21359 ft 426 kts 88°
2026-04-29 18:05 48.52947 19.91309 21095 ft 422 kts 88°
2026-04-29 18:05 48.52861 19.95754 20830 ft 423 kts 88°
2026-04-29 18:06 48.52778 20.00169 20417 ft 420 kts 88°
2026-04-29 18:06 48.52697 20.04549 19911 ft 415 kts 88°
2026-04-29 18:06 48.52612 20.08876 19411 ft 410 kts 88°
2026-04-29 18:06 48.52524 20.13165 18929 ft 406 kts 88°
2026-04-29 18:07 48.52436 20.17398 18433 ft 402 kts 88°
2026-04-29 18:07 48.52352 20.21546 17889 ft 398 kts 88°
2026-04-29 18:07 48.52265 20.25690 17343 ft 392 kts 88°
2026-04-29 18:07 48.52176 20.29783 16826 ft 388 kts 88°
2026-04-29 18:08 48.52088 20.33842 16304 ft 383 kts 88°
2026-04-29 18:08 48.51998 20.37760 15774 ft 364 kts 88°
2026-04-29 18:08 48.51912 20.41497 15261 ft 350 kts 88°
2026-04-29 18:08 48.51832 20.45109 14749 ft 341 kts 88°
2026-04-29 18:09 48.51752 20.48667 14257 ft 336 kts 87°
2026-04-29 18:09 48.51670 20.52167 13736 ft 332 kts 88°
2026-04-29 18:09 48.51588 20.55617 13183 ft 325 kts 88°
2026-04-29 18:09 48.51507 20.58959 12595 ft 320 kts 89°
2026-04-29 18:10 48.51426 20.62287 11939 ft 314 kts 89°
2026-04-29 18:10 48.51346 20.65554 11290 ft 308 kts 90°
2026-04-29 18:10 48.51266 20.68749 10669 ft 302 kts 90°
2026-04-29 18:10 48.51188 20.71887 10046 ft 297 kts 90°
2026-04-29 18:11 48.51108 20.74986 9361 ft 296 kts 90°
2026-04-29 18:11 48.51029 20.78070 8666 ft 291 kts 89°
2026-04-29 18:11 48.50952 20.81097 7974 ft 286 kts 89°
2026-04-29 18:11 48.50872 20.84051 7399 ft 277 kts 88°
2026-04-29 18:12 48.50794 20.86907 6956 ft 266 kts 88°
2026-04-29 18:12 48.50721 20.89576 6579 ft 252 kts 87°
2026-04-29 18:12 48.50655 20.92198 6168 ft 249 kts 88°
2026-04-29 18:12 48.50586 20.94805 5756 ft 247 kts 87°
2026-04-29 18:13 48.50515 20.97392 5361 ft 247 kts 87°
2026-04-29 18:13 48.50443 20.99986 4979 ft 246 kts 88°
2026-04-29 18:13 48.50367 21.02535 4724 ft 244 kts 88°
2026-04-29 18:13 48.50081 21.05071 4433 ft 249 kts 98°
2026-04-29 18:14 48.49674 21.07591 4188 ft 246 kts 98°
2026-04-29 18:14 48.49414 21.09251 4012 ft 242 kts 97°
2026-04-29 18:14 48.48934 21.12403 3653 ft 227 kts 97°
2026-04-29 18:14 48.48770 21.14723 3314 ft 218 kts 79°
2026-04-29 18:15 48.49289 21.16813 2950 ft 209 kts 53°
2026-04-29 18:15 48.50293 21.18265 2965 ft 204 kts 32°
2026-04-29 18:15 48.51596 21.18983 3014 ft 206 kts 14°
2026-04-29 18:15 48.52910 21.19436 2999 ft 178 kts 14°
2026-04-29 18:16 48.54061 21.19838 2969 ft 164 kts 13°
2026-04-29 18:16 48.55171 21.20226 2779 ft 161 kts 13°
2026-04-29 18:16 48.56180 21.20577 2562 ft 139 kts 14°
2026-04-29 18:16 48.57133 21.20910 2380 ft 143 kts 15°
2026-04-29 18:17 48.58116 21.21254 2184 ft 144 kts 15°
2026-04-29 18:17 48.59025 21.21570 1996 ft 121 kts 14°
2026-04-29 18:17 48.59782 21.21833 1839 ft 103 kts 14°
2026-04-29 18:17 48.60475 21.22082 1686 ft 104 kts 14°
2026-04-29 18:18 48.61169 21.22324 1548 ft 104 kts 12°
2026-04-29 18:18 48.61859 21.22568 1393 ft 105 kts 13°
2026-04-29 18:18 48.62563 21.22816 1265 ft 106 kts 11°
2026-04-29 18:18 48.63292 21.23098 1134 ft 107 kts 12°
2026-04-29 18:19 48.64016 21.23310 999 ft 106 kts 12°
2026-04-29 18:19 48.64733 21.23569 847 ft 105 kts 12°
2026-04-29 18:19 48.65429 21.23803 761 ft 93 kts 12°
2026-04-29 18:19 48.65991 21.24004 755 ft 73 kts 14°
2026-04-29 18:20 48.66435 21.24163 754 ft 59 kts 13°
2026-04-29 18:20 48.66777 21.24284 755 ft 37 kts 15°
2026-04-29 18:20 48.67007 21.24367 757 ft 31 kts 13°
2026-04-29 18:20 48.67178 21.24425 756 ft 16 kts 13°
2026-04-29 18:21 48.67239 21.24348 752 ft 12 kts 284°
2026-04-29 18:21 48.67257 21.24226 754 ft 11 kts 282°
2026-04-29 18:21 48.67221 21.24164 754 ft 9 kts 194°
2026-04-29 18:21 48.67167 21.24134 754 ft 7 kts 230°
2026-04-29 18:22 48.67171 21.24081 754 ft 5 kts 282°
2026-04-29 18:22 48.67181 21.24024 753 ft 6 kts 287°
2026-04-29 18:22 48.67194 21.23962 752 ft 6 kts 287°
2026-04-29 18:22 48.67205 21.23900 754 ft 6 kts 284°
2026-04-29 18:23 48.67210 21.23859 754 ft 6 kts 273°
2026-04-29 18:23 48.67206 21.23799 754 ft 4 kts 287°
2026-04-29 18:23 48.67225 21.23784 751 ft 1 kts 14°
2026-04-29 18:23 48.67225 21.23785 751 ft 0 kts 30°